[[{"header":{"parameterUnit":"m.s-1","parameterCategory":1,"la1":30.2991,"la2":30.254,"lo1":-89.0895,"lo2":-89.0444,"dy":0.0017,"dx":0.0017,"nx":28,"ny":28,"refTime":"2024-08-02T03:00:00:Z","depth":0,"parameterNumber":2,"parameterNumberName":"U-component_of_WINDS"},"data":[0,0,0,0,0,0,0,0,0,0,0,0,0,0,0,0,0,0,0,0,0,0,0,0,0,0,0,0,0,0,0,0,0,0,0,0,0,0,0,0,0,0,0,0,0,0,0,0,0,0,0,0,0,0,0,0,0,0,1.4512,1.4513,0,1.4563,1.4564,1.4564,1.4575,1.4575,1.4574,1.4574,1.4629,1.4631,1.4632,0,0,0,0,0,0,0,0,0,0,0,0,0,1.4429,1.443,1.4512,1.4513,1.4513,1.4563,1.4564,1.4564,1.4575,1.4575,1.4574,1.4574,1.4628,1.463,1.4633,0,0,0,0,0,0,0,0,0,0,0,0,0,1.4471,1.4431,1.4512,1.4525,1.4526,1.4563,1.4564,1.4564,1.4575,1.4575,1.4574,1.4573,1.4627,1.463,1.4633,1.4661,0,0,1.4641,1.4642,0,0,0,0,0,0,0,0,1.4468,1.4474,1.4522,1.4524,1.4526,1.4562,1.4554,1.4597,1.4575,1.4557,1.4574,1.4573,1.4607,1.4612,1.4622,1.4664,1.4666,1.4641,1.4643,1.4644,1.4645,0,0,0,0,0,0,0,1.4466,1.4472,1.4532,1.4523,1.4525,1.4529,1.4535,1.4563,1.4585,1.4558,1.4559,1.4565,1.4608,1.462,1.4624,1.4667,1.4641,1.4644,1.4645,1.4647,1.4738,1.4739,0,0,0,0,0,0,1.446,1.4469,1.4531,1.4534,1.4495,1.4531,1.4537,1.4551,1.4584,1.4589,1.4565,1.4565,1.4615,1.4621,1.4626,1.4663,1.4644,1.4647,1.4648,1.4737,1.4738,1.4739,0,0,0,0,0,0,1.4458,1.4465,1.4529,1.4502,1.451,1.4533,1.4549,1.4552,1.4564,1.459,1.4594,1.4573,1.4615,1.4622,1.4653,1.4665,1.4648,1.4651,1.4736,1.4738,1.4739,1.4737,0,0,0,0,0,0,1.4456,1.4464,1.4474,1.4502,1.4512,1.4553,1.4549,1.4554,1.4568,1.4569,1.4598,1.4602,1.4615,1.4649,1.4656,1.4669,1.4653,1.4735,1.4737,1.4738,1.4736,1.4738,1.474,0,0,0,0,0,1.4453,1.4472,1.4474,1.4482,1.4524,1.4554,1.456,1.4573,1.4569,1.458,1.4597,1.4601,1.4663,1.4652,1.466,1.4674,1.4735,1.4736,1.4738,1.4736,1.4738,1.474,0,0,0,0,0,0,1.4445,1.4475,1.4479,1.4507,1.4528,1.4556,1.4569,1.4575,1.4598,1.4597,1.4614,1.4621,1.4651,1.4666,1.4653,1.4705,1.4699,1.4702,1.4694,1.4697,1.4699,1.4695,1.4655,0,0,0,0,0,1.4446,1.4467,1.4493,1.4516,1.4526,1.4546,1.4559,1.4569,1.4591,1.46,1.4619,1.4642,1.4667,1.4682,1.4706,1.4739,1.4747,1.4753,1.4755,1.4756,1.4759,1.478,1.4784,1.4745,1.4745,1.4745,0,0,1.445,1.4469,1.4481,1.4515,1.4532,1.4554,1.4553,1.4576,1.4594,1.4604,1.4634,1.465,1.4676,1.4709,1.4724,1.4722,1.4772,1.4758,1.4759,1.4761,1.4782,1.4786,1.4789,1.4746,1.4746,1.4746,0,0,1.4468,1.4484,1.4505,1.4523,1.4549,1.4563,1.4568,1.4596,1.4606,1.4637,1.4646,1.4668,1.4709,1.4729,1.4744,1.4773,1.4779,1.478,1.479,1.4811,1.4814,1.4816,1.4829,1.4833,1.4783,1.4783,1.4783,0,1.4469,1.4502,1.4516,1.454,1.4556,1.4565,1.4589,1.4606,1.4638,1.465,1.4647,1.4701,1.472,1.4758,1.4766,1.4777,1.4786,1.4777,1.4812,1.4815,1.4818,1.483,1.4834,1.4783,1.4783,1.4783,1.4783,0,1.4503,1.4527,1.4541,1.4573,1.459,1.4614,1.4633,1.465,1.4658,1.4673,1.4706,1.4729,1.4759,1.4769,1.4777,1.481,1.4808,1.4808,1.4802,1.4821,1.4833,1.4838,1.4784,1.4784,1.4784,1.4783,0,0,1.4516,1.4557,1.4562,1.4578,1.4609,1.4628,1.4653,1.4682,1.4697,1.472,1.4744,1.478,1.4781,1.4799,1.4809,1.4827,1.4852,1.4826,1.4827,1.4831,1.4892,1.4893,1.4897,1.4856,1.4857,1.4857,1.4891,0,1.4539,1.4583,1.4598,1.4635,1.4659,1.467,1.4693,1.4715,1.4731,1.4754,1.4771,1.4798,1.4796,1.4807,1.4825,1.4845,1.4865,1.4843,1.488,1.4881,1.4873,1.4903,1.4903,1.4933,1.4895,1.4896,1.4896,0,1.4571,1.4595,1.4634,1.4665,1.4675,1.4695,1.4725,1.4746,1.4773,1.4784,1.4805,1.4815,1.4844,1.4837,1.4879,1.4864,1.4881,1.4893,1.4894,1.4899,1.489,1.491,1.4943,1.4948,1.4903,1.4903,1.4902,0,1.4578,1.462,1.465,1.4663,1.4699,1.4713,1.4729,1.4756,1.4773,1.48,1.4812,1.4842,1.4858,1.4882,1.4901,1.4894,1.4943,1.4936,1.4954,1.4954,1.4964,1.4963,1.5001,1.4973,1.4973,1.4972,1.4972,0,1.4602,1.4626,1.4654,1.4673,1.4702,1.472,1.4748,1.4765,1.4789,1.4813,1.4825,1.4847,1.487,1.4897,1.4912,1.4946,1.4953,1.4964,1.4968,1.4963,1.4962,1.4975,1.4973,1.4974,1.4973,1.4973,1.4973,0,1.4615,1.4634,1.4668,1.47,1.4709,1.4729,1.4757,1.4777,1.4794,1.4824,1.4832,1.4859,1.4891,1.4912,1.4952,1.4963,1.5001,1.5004,1.4991,1.4994,1.5011,1.5009,1.5059,1.5067,1.5032,1.5032,1.5032,0,1.4629,1.4648,1.4683,1.4699,1.4715,1.4741,1.476,1.478,1.4799,1.4833,1.4849,1.4882,1.4909,1.496,1.4984,1.5016,1.502,1.5036,1.5025,1.5021,1.5023,1.5022,1.5025,1.5037,1.5038,1.5038,1.5038,0,1.4653,1.4662,1.4688,1.4718,1.4739,1.4764,1.4789,1.4802,1.4827,1.4848,1.4881,1.4902,1.4944,1.4977,1.5012,1.5031,1.5039,1.5041,1.5047,1.5043,1.5036,1.5042,1.4997,1.504,1.504,1.504,1.5039,1.5039,1.4667,1.4686,1.4714,1.4743,1.4764,1.4788,1.4809,1.4829,1.4856,1.4892,1.4903,1.4937,1.4967,1.5015,1.5034,1.5063,1.5062,1.507,1.5073,1.5075,1.5076,1.5031,1.507,1.507,1.507,1.5069,1.5069,0,1.4693,1.4713,1.4739,1.4774,1.4798,1.4804,1.4832,1.4852,1.4882,1.4909,1.4936,1.4975,1.5008,1.5036,1.5071,1.5089,1.5094,1.5098,1.5097,1.5102,1.5074,1.5066,1.5093,1.5093,1.5093,1.5093,1.5093,1.5093,1.4709,1.4742,1.4755,1.48,1.482,1.4853,1.4869,1.4893,1.4914,1.4957,1.4985,1.5003,1.5031,1.5069,1.51,1.5108,1.5121,1.5124,1.5132,1.5106,1.5103,1.5101,1.5093,1.5126,1.5126,1.5158,1.5158,1.5159]},{"header":{"parameterUnit":"m.s-1","parameterCategory":1,"la1":30.2991,"la2":30.254,"lo1":-89.0895,"lo2":-89.0444,"dy":0.0017,"dx":0.0017,"nx":28,"ny":28,"refTime":"2024-08-02T03:00:00:Z","depth":0,"parameterNumber":3,"parameterNumberName":"V-component_of_WINDS"},"data":[0,0,0,0,0,0,0,0,0,0,0,0,0,0,0,0,0,0,0,0,0,0,0,0,0,0,0,0,0,0,0,0,0,0,0,0,0,0,0,0,0,0,0,0,0,0,0,0,0,0,0,0,0,0,0,0,0,0,0.3729,0.3731,0,0.3861,0.3862,0.3864,0.3861,0.3859,0.3857,0.3856,0.3992,0.3997,0.4002,0,0,0,0,0,0,0,0,0,0,0,0,0,0.3476,0.3481,0.3729,0.3731,0.3732,0.386,0.3862,0.3864,0.3861,0.3859,0.3857,0.3855,0.399,0.3997,0.4003,0,0,0,0,0,0,0,0,0,0,0,0,0,0.3595,0.3482,0.3729,0.3746,0.3749,0.386,0.3862,0.3865,0.3862,0.3859,0.3856,0.3854,0.3988,0.3996,0.4004,0.4106,0,0,0.4028,0.4031,0,0,0,0,0,0,0,0,0.3588,0.3604,0.3742,0.3745,0.3749,0.3842,0.3823,0.3946,0.3862,0.3819,0.3856,0.3853,0.3944,0.3956,0.3986,0.4113,0.4118,0.4029,0.4034,0.4037,0.4039,0,0,0,0,0,0,0,0.358,0.3598,0.3781,0.3744,0.3748,0.3748,0.3762,0.3846,0.3895,0.3823,0.3823,0.3838,0.3946,0.3979,0.3989,0.412,0.4029,0.4036,0.404,0.4044,0.4334,0.4337,0,0,0,0,0,0,0.3568,0.3591,0.3777,0.3785,0.366,0.3755,0.377,0.3815,0.3894,0.3904,0.384,0.3838,0.3966,0.398,0.3994,0.4117,0.4037,0.4044,0.4049,0.4331,0.4335,0.4338,0,0,0,0,0,0,0.3562,0.3584,0.3772,0.3688,0.3712,0.3762,0.3812,0.3819,0.3852,0.3908,0.3916,0.3865,0.3965,0.3983,0.4078,0.4122,0.4048,0.4055,0.4328,0.4332,0.4336,0.4365,0,0,0,0,0,0,0.3555,0.3582,0.3622,0.3689,0.3717,0.3853,0.3815,0.3823,0.3865,0.3863,0.3933,0.3942,0.3964,0.4066,0.4085,0.4131,0.4061,0.4324,0.433,0.4335,0.436,0.437,0.4378,0,0,0,0,0,0.3546,0.3626,0.3624,0.3646,0.3767,0.3856,0.3871,0.3894,0.3869,0.3909,0.3944,0.394,0.4114,0.4075,0.4098,0.4147,0.4321,0.4328,0.4335,0.4356,0.4368,0.4378,0,0,0,0,0,0,0.3564,0.3635,0.3634,0.3738,0.379,0.3855,0.3906,0.3907,0.3968,0.3964,0.399,0.4006,0.41,0.4133,0.4089,0.4248,0.4214,0.4226,0.4223,0.4235,0.4243,0.4233,0.4068,0,0,0,0,0,0.3579,0.3645,0.3704,0.379,0.3816,0.3857,0.3896,0.3909,0.3965,0.3988,0.403,0.4085,0.4152,0.4195,0.426,0.4365,0.4379,0.441,0.4418,0.4425,0.4434,0.449,0.4503,0.436,0.436,0.436,0,0,0.3613,0.366,0.37,0.3795,0.3837,0.3904,0.3876,0.3949,0.3998,0.3999,0.409,0.4123,0.4186,0.4285,0.4331,0.4316,0.4477,0.4434,0.4439,0.4445,0.4498,0.4511,0.4523,0.4364,0.4364,0.4363,0,0,0.3708,0.3751,0.3826,0.3869,0.3933,0.3959,0.3976,0.4041,0.4062,0.4154,0.4155,0.4214,0.433,0.4373,0.4411,0.4519,0.4517,0.454,0.4586,0.4639,0.465,0.4661,0.4697,0.471,0.4549,0.4549,0.4549,0,0.3742,0.3843,0.3865,0.3937,0.3978,0.398,0.4056,0.4096,0.4179,0.4206,0.4188,0.433,0.4373,0.4481,0.4507,0.4538,0.4558,0.4532,0.4647,0.4657,0.4667,0.4702,0.4716,0.4551,0.4551,0.4551,0.4551,0,0.388,0.395,0.4003,0.408,0.4127,0.4201,0.4233,0.4278,0.4286,0.4314,0.4406,0.4457,0.453,0.4557,0.4567,0.4666,0.4654,0.4641,0.4607,0.4682,0.4716,0.473,0.4555,0.4554,0.4553,0.4553,0,0,0.3991,0.4078,0.4097,0.413,0.42,0.4254,0.4327,0.4398,0.4435,0.4491,0.4552,0.4648,0.4635,0.4678,0.4692,0.474,0.4819,0.472,0.4722,0.4735,0.4929,0.4937,0.4952,0.4818,0.4821,0.4823,0.4922,0,0.4092,0.422,0.4241,0.4354,0.4417,0.442,0.4483,0.4532,0.456,0.4617,0.4648,0.4714,0.4694,0.4719,0.4766,0.4799,0.4858,0.4793,0.4874,0.4876,0.4856,0.497,0.4979,0.5071,0.4936,0.4938,0.494,0,0.4227,0.4284,0.4403,0.4461,0.4489,0.4545,0.461,0.4666,0.4721,0.4737,0.4783,0.4791,0.4866,0.4829,0.4932,0.4887,0.4921,0.4942,0.4946,0.4954,0.4912,0.4978,0.5101,0.5113,0.4961,0.4959,0.4958,0,0.4293,0.44,0.4484,0.4513,0.4584,0.4623,0.4655,0.4707,0.4748,0.4805,0.4831,0.4897,0.4932,0.4983,0.5008,0.4979,0.5107,0.5074,0.5122,0.5121,0.5148,0.5146,0.5276,0.5173,0.5173,0.5173,0.5172,0,0.4402,0.4474,0.4514,0.4566,0.4646,0.4669,0.4747,0.4778,0.4824,0.4881,0.4888,0.4941,0.4972,0.503,0.505,0.513,0.5147,0.5161,0.5165,0.516,0.5158,0.5182,0.5175,0.5176,0.5176,0.5175,0.5174,0,0.4489,0.4519,0.461,0.4669,0.4685,0.4741,0.4792,0.4841,0.4868,0.4939,0.4958,0.4999,0.5067,0.5097,0.5182,0.5195,0.5285,0.5286,0.5266,0.5267,0.5313,0.5307,0.5462,0.5482,0.5368,0.5369,0.537,0,0.4556,0.4611,0.4674,0.4712,0.4744,0.4806,0.4847,0.4871,0.4913,0.4979,0.502,0.5088,0.5143,0.5251,0.5288,0.5352,0.5353,0.5403,0.5363,0.5354,0.5351,0.5347,0.5351,0.541,0.5411,0.5412,0.5412,0,0.467,0.4682,0.474,0.4802,0.485,0.4901,0.495,0.4981,0.5013,0.506,0.5129,0.5171,0.5256,0.5322,0.5388,0.542,0.5421,0.5425,0.5439,0.5433,0.5418,0.5424,0.5284,0.5421,0.542,0.5419,0.5419,0.5419,0.4748,0.4796,0.4847,0.4911,0.495,0.4996,0.5044,0.5076,0.5133,0.5203,0.5215,0.5287,0.5339,0.5427,0.5461,0.5517,0.5505,0.5527,0.5532,0.5536,0.5537,0.541,0.553,0.553,0.553,0.5529,0.5529,0,0.4861,0.4893,0.4952,0.502,0.5069,0.5065,0.5119,0.5161,0.5224,0.5272,0.5326,0.5403,0.5467,0.5509,0.5573,0.561,0.5612,0.5626,0.5623,0.5629,0.5546,0.5526,0.5623,0.5623,0.5623,0.5623,0.5623,0.5623,0.4925,0.5005,0.5022,0.5121,0.5153,0.5223,0.5254,0.5296,0.5334,0.542,0.5472,0.5499,0.5544,0.5611,0.5668,0.5679,0.5701,0.5715,0.5725,0.5646,0.5636,0.5626,0.5608,0.5721,0.5721,0.5804,0.5805,0.5805]}]]